Flag for Egypt

Past Weather in Sharm el-Sheikh, Egypt — Yesterday and Last 2 Weeks

Now
90 °F

Clear.


Feels Like: 92 °F
Forecast: 95 / 80 °F
Wind: 2 mph from North

Location: Sharm El Sheikhintl

Current Time: Jul 7, 2020 at 10:27:29 pm

Latest Report: Jul 7, 2020 at 9:00 pm


Visibility: 10 mi

Pressure: 29.65 "Hg

Humidity: 46%

Dew Point: 66 °F

Location of Sharm el-SheikhLocation

Past Weather in Sharm el-Sheikh — Graph

°F

Sharm el-Sheikh Temperature Yesterday

Maximum temperature yesterday: 102 °F (at 2:00 pm)
Minimum temperature yesterday: 86 °F (at 1:00 am)
Average temperature yesterday: 94 °F

High & Low Weather Summary for the Past Weeks

 TemperatureHumidityPressure
High104 °F (Jul 3, 2:00 pm)75% (Jul 3, 8:00 pm)29.89 "Hg (Jul 3, 8:00 pm)
Low79 °F (Jun 25, 4:00 am)16% (Jul 1, 2:00 pm)29.53 "Hg (Jul 2, 6:00 pm)
Average92 °F32%29.67 "Hg
* Reported Jun 22 9:00 pm — Jul 7 9:00 pm, Sharm el-Sheikh. Weather by CustomWeather, © 2020

Note: Actual official high and low records may vary slightly from our data, if they occured in-between our weather recording intervals... More about our weather records

Sharm el-Sheikh Weather History for the Previous 24 Hours

Scroll right to see more
 ConditionsComfort  
Time TempWeatherWind HumidityBarometerVisibility
9:00 pm
Tue, Jul 7
90 °FClear.2 mph46%29.65 "Hg10 mi
8:00 pm91 °FClear.No wind36%29.65 "Hg10 mi
7:00 pm93 °FExtremely hot.N/A32%29.62 "HgN/A
6:00 pm93 °FSunny.5 mph32%29.62 "Hg10 mi
5:00 pm97 °FSunny.3 mph28%29.62 "Hg10 mi
4:00 pm95 °FSunny.7 mph30%29.62 "Hg10 mi
3:00 pm97 °FSunny.8 mph27%29.65 "Hg10 mi
2:00 pm97 °FSunny.6 mph28%29.65 "Hg10 mi
1:00 pm99 °FSunny.5 mph29%29.65 "Hg10 mi
12:00 pm97 °FSunny.7 mph25%29.65 "Hg10 mi
11:00 am97 °FSunny.7 mph27%29.68 "Hg10 mi
10:00 am93 °FSunny.12 mph28%29.68 "Hg10 mi
9:00 am91 °FSunny.12 mph32%29.65 "Hg10 mi
8:00 am90 °FSunny.14 mph36%29.65 "Hg10 mi
7:00 am88 °FSunny.12 mph40%29.65 "Hg10 mi
6:00 am84 °FSunny.9 mph45%29.62 "Hg10 mi
5:00 am82 °FSunny.12 mph48%29.62 "Hg10 mi
4:00 am84 °FClear.10 mph48%29.59 "Hg10 mi
3:00 am86 °FClear.10 mph38%29.59 "Hg10 mi
2:00 am86 °FClear.12 mph38%29.59 "Hg10 mi
1:00 am88 °FClear.9 mph33%29.59 "Hg10 mi
12:00 am90 °FClear.12 mph31%29.56 "Hg10 mi
11:00 pm
Mon, Jul 6
90 °FClear.14 mph31%29.56 "Hg10 mi
10:00 pm91 °FClear.12 mph28%29.56 "Hg10 mi
Weather by CustomWeather, © 2020

See weather overview